Погода в Форталезе

Бразилия     3°46′40″S   38°34′20″W
темп.,
°C
ветер,
м/с
пор.,
м/с
влажн.,
%
обл.,
%
осадки,
мм/ч
давл.,
гПа
погр.,
м
27 февраля, сб
сб2700:00+27в3577100 2.1 1010768
03:00+27вюв3579100 3.3 1009654
06:00+26юв357994 0.7 1010583
09:00+29вюв566965 1.2 10111026
12:00+30в67632 0.1 10101180
15:00+29в67672 0.1 10071076
18:00+28в466941 0.0 1008808
21:00+28всв467669 0.0 1009835
28 февраля, вс
вс2800:00+27в4677100 0.2 1009773
03:00+27в357888 1.1 1008661
06:00+26вюв247842 1.4 1009562
09:00+28вюв567134 3.2 1011848
12:00+29вюв56658 1.6 1009984
15:00+29в56665 2.3 1006933
18:00+28в457329 0.0 1007835
21:00+28всв467654 0.1 1008780
1 марта, пн
пн100:00+27в577740 2.8 1008768
03:00+27вюв577866 5.3 1007820
06:00+26вюв577929 1.1 1008737
09:00+28вюв577226 2.4 1009915
12:00+29вюв776331 1.1 10081133
15:00+29в676415 1.1 10061082
18:00+28в57710 0.0 1006894
21:00+28всв57774 0.0 1009902
2 марта, вт
вт200:00+27в587843 1.5 1009871
03:00+27в687848 7.3 1008745
06:00+27в687861 8.6 1009795
09:00+28вюв686955 11.1 10111069
12:00+30вюв786451 1.4 10101182
15:00+29в686876 1.9 10081068
18:00+28в687555 0.1 1009930
21:00+28всв697736 0.6 1011872
3 марта, ср
ср300:00+27в687610 1.4 1011978
03:00+27в577741 2.1 1010881
06:00+26вюв577836 0.8 1011790
09:00+28вюв576938 1.1 10131039
12:00+29вюв676583 0.5 10121062
15:00+29в676684 0.6 10101054
18:00+28в57730 0.0 1010816
21:00+28в577630 0.5 1012751